[[{"header":{"parameterUnit":"m.s-1","parameterCategory":1,"la1":30.2991,"la2":30.254,"lo1":-89.0895,"lo2":-89.0444,"dy":0.0017,"dx":0.0017,"nx":28,"ny":28,"refTime":"2024-10-05T21:00:00:Z","depth":0,"parameterNumber":2,"parameterNumberName":"U-component_of_WINDS"},"data":[0,0,0,0,0,0,0,0,0,0,0,0,0,0,0,0,0,0,0,0,0,0,0,0,0,0,0,0,0,0,0,0,0,0,0,0,0,0,0,0,0,0,0,0,0,0,0,0,0,0,0,0,0,0,0,0,0,0,-3.8631,-3.8632,0,-3.8694,-3.8694,-3.8695,-3.8563,-3.8559,-3.8554,-3.855,-3.8616,-3.8622,-3.8628,0,0,0,0,0,0,0,0,0,0,0,0,0,-3.8399,-3.8404,-3.8631,-3.8632,-3.8633,-3.8694,-3.8695,-3.8695,-3.8564,-3.8558,-3.8553,-3.8548,-3.8615,-3.8621,-3.8628,0,0,0,0,0,0,0,0,0,0,0,0,0,-3.8485,-3.8406,-3.8631,-3.8574,-3.857,-3.8693,-3.8695,-3.8696,-3.8565,-3.8558,-3.8552,-3.8546,-3.8612,-3.8621,-3.8629,-3.8812,0,0,-3.8656,-3.8659,0,0,0,0,0,0,0,0,-3.848,-3.8493,-3.8582,-3.8578,-3.8574,-3.8614,-3.8637,-3.8735,-3.8566,-3.8567,-3.855,-3.8543,-3.8621,-3.8628,-3.8654,-3.8815,-3.8817,-3.8656,-3.8662,-3.8665,-3.8668,0,0,0,0,0,0,0,-3.8474,-3.849,-3.8656,-3.8583,-3.8578,-3.8546,-3.8551,-3.8655,-3.8629,-3.8566,-3.8557,-3.8566,-3.8617,-3.8646,-3.8655,-3.8818,-3.8656,-3.8664,-3.8669,-3.8673,-3.9132,-3.9139,0,0,0,0,0,0,-3.8475,-3.8486,-3.8654,-3.8658,-3.851,-3.8556,-3.8561,-3.8608,-3.8628,-3.8625,-3.8571,-3.8559,-3.8635,-3.8645,-3.8657,-3.8873,-3.8665,-3.8673,-3.8678,-3.9125,-3.9133,-3.9141,0,0,0,0,0,0,-3.8471,-3.8492,-3.8651,-3.8569,-3.8587,-3.8566,-3.862,-3.8612,-3.8641,-3.8632,-3.8627,-3.8606,-3.863,-3.8645,-3.8774,-3.8873,-3.8677,-3.8685,-3.9117,-3.9128,-3.9137,-3.9306,0,0,0,0,0,0,-3.8465,-3.8491,-3.856,-3.8572,-3.8592,-3.8768,-3.8626,-3.8618,-3.8656,-3.8641,-3.8662,-3.866,-3.8626,-3.8762,-3.8783,-3.8881,-3.8692,-3.9108,-3.9122,-3.9134,-3.9291,-3.9321,-3.9346,0,0,0,0,0,-3.8457,-3.8605,-3.8564,-3.8585,-3.8678,-3.8774,-3.8785,-3.8743,-3.8664,-3.8734,-3.8728,-3.8659,-3.8858,-3.8776,-3.8799,-3.8902,-3.9101,-3.9118,-3.9133,-3.9279,-3.9315,-3.9345,0,0,0,0,0,0,-3.8606,-3.8605,-3.856,-3.8716,-3.8746,-3.8751,-3.8838,-3.8782,-3.8836,-3.882,-3.8765,-3.8771,-3.8912,-3.8919,-3.8827,-3.9079,-3.8967,-3.8988,-3.907,-3.9104,-3.9131,-3.9127,-3.8699,0,0,0,0,0,-3.8656,-3.8734,-3.8729,-3.8868,-3.8885,-3.8859,-3.8899,-3.8864,-3.8893,-3.8905,-3.8908,-3.894,-3.9009,-3.9056,-3.912,-3.929,-3.9294,-3.9372,-3.9399,-3.9422,-3.9442,-3.9534,-3.9569,-3.9193,-3.9193,-3.9192,0,0,-3.8763,-3.8772,-3.8824,-3.8898,-3.8917,-3.8999,-3.8871,-3.8963,-3.9024,-3.8919,-3.9042,-3.9046,-3.9077,-3.9228,-3.9295,-3.9239,-3.9546,-3.9442,-3.946,-3.9468,-3.9553,-3.9589,-3.9621,-3.9204,-3.9202,-3.92,0,0,-3.8999,-3.9013,-3.913,-3.9152,-3.9181,-3.9163,-3.9191,-3.9205,-3.9203,-3.9325,-3.9249,-3.932,-3.9441,-3.9467,-3.9496,-3.9741,-3.968,-3.9763,-3.9906,-3.9997,-4.0026,-4.0052,-4.0142,-4.0174,-3.9782,-3.9782,-3.9782,0,-3.9127,-3.9248,-3.9197,-3.9296,-3.9331,-3.9238,-3.9357,-3.938,-3.943,-3.9457,-3.9392,-3.9542,-3.9557,-3.9713,-3.9773,-3.9799,-3.983,-3.9761,-4.0026,-4.0052,-4.0075,-4.016,-4.0193,-3.9792,-3.9791,-3.979,-3.9789,0,-3.9405,-3.949,-3.9581,-3.9631,-3.9676,-3.9784,-3.9751,-3.9802,-3.9763,-3.9751,-3.9877,-3.9891,-3.9956,-3.999,-3.9952,-4.0142,-4.0106,-4.0035,-3.9921,-4.0122,-4.0201,-4.0232,-3.9806,-3.9803,-3.98,-3.9797,0,0,-3.9739,-3.9759,-3.9793,-3.9815,-3.9841,-3.9906,-4.001,-4.0072,-4.0119,-4.0155,-4.0242,-4.0346,-4.028,-4.0313,-4.0277,-4.0356,-4.0552,-4.0275,-4.0275,-4.0328,-4.0763,-4.0818,-4.0857,-4.051,-4.0516,-4.0521,-4.0761,0,-3.9974,-4.0152,-4.011,-4.0287,-4.0365,-4.0278,-4.0369,-4.0395,-4.0387,-4.0452,-4.0443,-4.0518,-4.0424,-4.0444,-4.0518,-4.0512,-4.0639,-4.0494,-4.0592,-4.0596,-4.059,-4.0897,-4.0956,-4.1182,-4.0791,-4.0796,-4.08,0,-4.0273,-4.0321,-4.0506,-4.0519,-4.0551,-4.0633,-4.0687,-4.075,-4.0778,-4.0767,-4.0803,-4.0752,-4.0855,-4.0739,-4.0881,-4.0784,-4.0821,-4.0824,-4.0832,-4.0841,-4.0712,-4.0918,-4.1253,-4.1288,-4.0848,-4.0844,-4.084,0,-4.0501,-4.0611,-4.0736,-4.0757,-4.0776,-4.0836,-4.0846,-4.0867,-4.0908,-4.0955,-4.0981,-4.104,-4.1074,-4.1121,-4.1087,-4.1005,-4.1236,-4.1116,-4.123,-4.1232,-4.1285,-4.1283,-4.1634,-4.1306,-4.1305,-4.1304,-4.1304,0,-4.0769,-4.0886,-4.0839,-4.0916,-4.1045,-4.0994,-4.1123,-4.1123,-4.1143,-4.1219,-4.1147,-4.122,-4.117,-4.1239,-4.1213,-4.1336,-4.1351,-4.1345,-4.1338,-4.1354,-4.1355,-4.1379,-4.1364,-4.1313,-4.1311,-4.131,-4.1308,0,-4.1047,-4.1019,-4.115,-4.1156,-4.116,-4.1255,-4.1261,-4.1333,-4.1318,-4.1416,-4.1436,-4.1414,-4.1492,-4.1462,-4.1545,-4.1527,-4.1685,-4.1655,-4.1676,-4.1669,-4.1786,-4.1777,-4.2168,-4.2217,-4.1855,-4.1858,-4.1861,0,-4.1221,-4.1309,-4.1325,-4.137,-4.1386,-4.146,-4.1501,-4.1454,-4.15,-4.1538,-4.1606,-4.1677,-4.1732,-4.186,-4.1852,-4.1915,-4.1888,-4.2021,-4.1897,-4.1911,-4.1893,-4.1889,-4.1898,-4.2046,-4.2051,-4.2054,-4.2057,0,-4.1535,-4.1517,-4.1578,-4.1636,-4.1686,-4.1729,-4.1766,-4.1808,-4.1763,-4.1818,-4.1896,-4.1939,-4.2023,-4.2095,-4.2151,-4.2162,-4.2104,-4.2095,-4.2125,-4.2144,-4.2153,-4.2152,-4.1746,-4.2087,-4.2084,-4.2082,-4.208,-4.2079,-4.1767,-4.1842,-4.1865,-4.1936,-4.1958,-4.1994,-4.2062,-4.2056,-4.212,-4.2185,-4.2153,-4.2245,-4.227,-4.2339,-4.2358,-4.2429,-4.2378,-4.2421,-4.2433,-4.2445,-4.2461,-4.214,-4.2439,-4.2438,-4.2437,-4.2436,-4.2436,0,-4.2079,-4.2089,-4.2155,-4.2208,-4.2264,-4.2202,-4.2239,-4.2291,-4.2372,-4.24,-4.2455,-4.2546,-4.2615,-4.2612,-4.2676,-4.2734,-4.2709,-4.2753,-4.2749,-4.2753,-4.2502,-4.2471,-4.2772,-4.2772,-4.2772,-4.2772,-4.2772,-4.2772,-4.2248,-4.2371,-4.2356,-4.249,-4.2498,-4.2587,-4.2614,-4.2647,-4.2669,-4.2773,-4.283,-4.2827,-4.2844,-4.2908,-4.297,-4.2967,-4.2995,-4.305,-4.3038,-4.2804,-4.2771,-4.2739,-4.2709,-4.3056,-4.3056,-4.3282,-4.3285,-4.3286]},{"header":{"parameterUnit":"m.s-1","parameterCategory":1,"la1":30.2991,"la2":30.254,"lo1":-89.0895,"lo2":-89.0444,"dy":0.0017,"dx":0.0017,"nx":28,"ny":28,"refTime":"2024-10-05T21:00:00:Z","depth":0,"parameterNumber":3,"parameterNumberName":"V-component_of_WINDS"},"data":[0,0,0,0,0,0,0,0,0,0,0,0,0,0,0,0,0,0,0,0,0,0,0,0,0,0,0,0,0,0,0,0,0,0,0,0,0,0,0,0,0,0,0,0,0,0,0,0,0,0,0,0,0,0,0,0,0,0,-4.1844,-4.1844,0,-4.1872,-4.1872,-4.1872,-4.1813,-4.1811,-4.1809,-4.1807,-4.1835,-4.1837,-4.184,0,0,0,0,0,0,0,0,0,0,0,0,0,-4.1735,-4.1738,-4.1844,-4.1844,-4.1844,-4.1872,-4.1872,-4.1873,-4.1813,-4.1811,-4.1809,-4.1807,-4.1834,-4.1837,-4.184,0,0,0,0,0,0,0,0,0,0,0,0,0,-4.1775,-4.1738,-4.1843,-4.1818,-4.1816,-4.1872,-4.1872,-4.1873,-4.1814,-4.1811,-4.1808,-4.1806,-4.1833,-4.1837,-4.184,-4.1921,0,0,-4.1852,-4.1854,0,0,0,0,0,0,0,0,-4.1773,-4.1779,-4.1821,-4.182,-4.1818,-4.1836,-4.1844,-4.1889,-4.1815,-4.1815,-4.1807,-4.1804,-4.1837,-4.1841,-4.1852,-4.1923,-4.1924,-4.1852,-4.1855,-4.1856,-4.1857,0,0,0,0,0,0,0,-4.177,-4.1777,-4.1855,-4.1822,-4.182,-4.1804,-4.1807,-4.1852,-4.1842,-4.1815,-4.181,-4.1815,-4.1836,-4.1849,-4.1852,-4.1924,-4.1852,-4.1856,-4.1858,-4.1859,-4.206,-4.2063,0,0,0,0,0,0,-4.1771,-4.1775,-4.1854,-4.1855,-4.1788,-4.1809,-4.1811,-4.1833,-4.1841,-4.184,-4.1817,-4.1812,-4.1844,-4.1848,-4.1853,-4.1947,-4.1856,-4.186,-4.1862,-4.2057,-4.2061,-4.2064,0,0,0,0,0,0,-4.1769,-4.1778,-4.1853,-4.1814,-4.1823,-4.1814,-4.1838,-4.1835,-4.1848,-4.1843,-4.1841,-4.1832,-4.1842,-4.1848,-4.1905,-4.1947,-4.1861,-4.1865,-4.2054,-4.2058,-4.2063,-4.2137,0,0,0,0,0,0,-4.1766,-4.1778,-4.181,-4.1816,-4.1825,-4.1905,-4.1841,-4.1838,-4.1855,-4.1848,-4.1857,-4.1855,-4.184,-4.1899,-4.1908,-4.1951,-4.1868,-4.205,-4.2056,-4.2061,-4.213,-4.2143,-4.2154,0,0,0,0,0,-4.1762,-4.1829,-4.1811,-4.1821,-4.1864,-4.1907,-4.1912,-4.1894,-4.1859,-4.189,-4.1886,-4.1855,-4.1941,-4.1906,-4.1915,-4.196,-4.2047,-4.2054,-4.2061,-4.2125,-4.2141,-4.2154,0,0,0,0,0,0,-4.1828,-4.183,-4.181,-4.1881,-4.1895,-4.1897,-4.1936,-4.1911,-4.1935,-4.1927,-4.1902,-4.1905,-4.1966,-4.1968,-4.1929,-4.2037,-4.1988,-4.1997,-4.2034,-4.2048,-4.206,-4.2058,-4.1871,0,0,0,0,0,-4.1851,-4.1887,-4.1886,-4.1949,-4.1957,-4.1945,-4.1963,-4.1947,-4.196,-4.1965,-4.1966,-4.1979,-4.2008,-4.2029,-4.2056,-4.2131,-4.2131,-4.2166,-4.2178,-4.2188,-4.2196,-4.2233,-4.2248,-4.2087,-4.2087,-4.2087,0,0,-4.1899,-4.1904,-4.1928,-4.1962,-4.1971,-4.2007,-4.195,-4.1992,-4.2018,-4.1971,-4.2025,-4.2026,-4.2038,-4.2104,-4.2133,-4.2108,-4.224,-4.2196,-4.2204,-4.2207,-4.2242,-4.2257,-4.2271,-4.2092,-4.2091,-4.209,0,0,-4.2004,-4.2013,-4.2065,-4.2074,-4.2088,-4.208,-4.2092,-4.2098,-4.2097,-4.215,-4.2116,-4.2146,-4.2199,-4.2208,-4.222,-4.2328,-4.2299,-4.2337,-4.2399,-4.2437,-4.2449,-4.246,-4.2497,-4.2511,-4.2345,-4.2345,-4.2346,0,-4.2062,-4.2116,-4.2095,-4.2138,-4.2153,-4.2113,-4.2165,-4.2175,-4.2197,-4.2208,-4.218,-4.2243,-4.2249,-4.2315,-4.2341,-4.2353,-4.2365,-4.2336,-4.2449,-4.246,-4.247,-4.2505,-4.2519,-4.235,-4.2349,-4.2349,-4.2348,0,-4.2185,-4.2223,-4.2263,-4.2285,-4.2305,-4.2352,-4.2337,-4.236,-4.2342,-4.2336,-4.239,-4.2395,-4.2422,-4.2437,-4.242,-4.2501,-4.2484,-4.2454,-4.2403,-4.249,-4.2522,-4.2536,-4.2356,-4.2355,-4.2353,-4.2352,0,0,-4.2333,-4.2342,-4.2357,-4.2366,-4.2377,-4.2405,-4.245,-4.2476,-4.2495,-4.2511,-4.2547,-4.2592,-4.2563,-4.2576,-4.256,-4.2593,-4.2675,-4.2557,-4.2557,-4.2578,-4.2763,-4.2785,-4.2801,-4.2657,-4.266,-4.2662,-4.2761,0,-4.2436,-4.2514,-4.2496,-4.2572,-4.2605,-4.2567,-4.2606,-4.2616,-4.2612,-4.2639,-4.2634,-4.2665,-4.2625,-4.2633,-4.2663,-4.2659,-4.2712,-4.2652,-4.2689,-4.2691,-4.2686,-4.2818,-4.2843,-4.2936,-4.2774,-4.2776,-4.2777,0,-4.2567,-4.2588,-4.2668,-4.2672,-4.2685,-4.272,-4.2742,-4.2769,-4.2779,-4.2774,-4.2788,-4.2765,-4.2808,-4.2758,-4.2816,-4.2775,-4.2789,-4.2789,-4.2793,-4.2795,-4.2739,-4.2823,-4.2966,-4.298,-4.2797,-4.2796,-4.2794,0,-4.2666,-4.2713,-4.2767,-4.2775,-4.2782,-4.2807,-4.2811,-4.2819,-4.2835,-4.2854,-4.2864,-4.2888,-4.2901,-4.2919,-4.2902,-4.2868,-4.2962,-4.2911,-4.2958,-4.2958,-4.2979,-4.2978,-4.3125,-4.299,-4.299,-4.299,-4.2989,0,-4.2782,-4.2832,-4.2811,-4.2844,-4.2898,-4.2875,-4.2929,-4.2929,-4.2935,-4.2966,-4.2935,-4.2964,-4.2941,-4.2968,-4.2956,-4.3005,-4.3011,-4.3007,-4.3002,-4.3009,-4.3009,-4.3017,-4.301,-4.2993,-4.2993,-4.2992,-4.2991,0,-4.2901,-4.2889,-4.2944,-4.2946,-4.2947,-4.2987,-4.2987,-4.3017,-4.301,-4.3049,-4.3057,-4.3046,-4.3076,-4.3062,-4.3094,-4.3085,-4.3148,-4.3135,-4.3144,-4.3141,-4.3187,-4.3183,-4.3345,-4.3364,-4.3217,-4.3219,-4.322,0,-4.2976,-4.3013,-4.3018,-4.3037,-4.3043,-4.3073,-4.3089,-4.3069,-4.3087,-4.3101,-4.3128,-4.3156,-4.3177,-4.3227,-4.3221,-4.3245,-4.3232,-4.3287,-4.3235,-4.324,-4.3231,-4.3229,-4.3231,-4.3297,-4.3299,-4.33,-4.3301,0,-4.3109,-4.3101,-4.3126,-4.3149,-4.3169,-4.3186,-4.32,-4.3217,-4.3196,-4.3218,-4.3249,-4.3265,-4.3297,-4.3324,-4.3344,-4.3347,-4.3321,-4.3318,-4.3329,-4.3336,-4.3339,-4.3336,-4.3171,-4.3314,-4.3313,-4.3312,-4.3311,-4.331,-4.3208,-4.3238,-4.3246,-4.3274,-4.3283,-4.3296,-4.3324,-4.3319,-4.3345,-4.3369,-4.3355,-4.339,-4.3398,-4.3423,-4.3429,-4.3456,-4.3434,-4.3451,-4.3455,-4.346,-4.3465,-4.3336,-4.3459,-4.3459,-4.3459,-4.3458,-4.3458,0,-4.3338,-4.3341,-4.3367,-4.3387,-4.3409,-4.3383,-4.3396,-4.3416,-4.3448,-4.3458,-4.3478,-4.3513,-4.3539,-4.3535,-4.3558,-4.358,-4.3568,-4.3587,-4.3584,-4.3585,-4.3484,-4.3471,-4.3596,-4.3596,-4.3596,-4.3596,-4.3596,-4.3595,-4.3408,-4.3458,-4.3451,-4.3504,-4.3506,-4.354,-4.355,-4.3562,-4.3569,-4.3609,-4.363,-4.3627,-4.3631,-4.3654,-4.3676,-4.3674,-4.3684,-4.3707,-4.37,-4.3606,-4.3592,-4.3579,-4.3567,-4.3709,-4.3709,-4.3798,-4.3799,-4.38]}]]